Powrót do katalogu

DELTA 1 DEB

AktywnyLEO
NORAD 29185·DEBRIS·🇺🇸 United States

Wystrzelony Jan 11, 1968 z Vandenberg Space Force Base

Loading…

Następne Przeloty (najbliższe 24 godziny)

TLE

ŚwieżeSource: Space-Track

Epoka: Sep 14, 2026, 10:42 UTC

1 29185U 68002J   26257.44640201  .00001192  00000-0  26762-2 0  9992
2 29185 105.7821 143.7256 0244098 144.7120 217.0404 13.20794485478904

Śledź DELTA 1 DEB w czasie rzeczywistym z AllMySat

Download on the App Store